Simultaneous Nadir Overpasses (SNOs) Predictions

Prediction of SNOs between GOES-16 and AQUA Satellite Orbit:

Table of predicted SNOs for the next 14.0 days since TLE Epoch: 7/6/2024
Index Date Time (GOES-16) GOES-16 Lat,Lon AQUA Lat,Lon Distance(km) Time Diff (sec)
1 07/07/2024 19:00:44 -0.03, -75.21 0.52, -72.59 297.56 80
2 07/08/2024 07:23:29 0.04, -75.21 0.52, -77.45 254.80 80
3 07/10/2024 07:04:06 0.03, -75.23 -0.39, -73.36 212.25 80
4 07/10/2024 19:26:58 -0.04, -75.23 -0.71, -78.25 343.68 80
5 07/12/2024 19:07:34 -0.04, -75.26 0.19, -74.16 124.67 80
6 07/13/2024 07:30:19 0.04, -75.26 0.83, -79.02 427.11 80
7 07/15/2024 07:10:54 0.03, -75.30 -0.06, -74.93 41.96 80
8 07/17/2024 19:17:01 -0.01, -75.34 -0.12, -75.72 44.16 80
9 07/19/2024 18:57:35 0.01, -75.37 0.81, -71.63 425.63 80
